To NAV CANADA Home Page Login to a new session Search on AWWS site Feedback and Comments Disclaimer Vers la page française équivalente Tips FAQ What's new on the site To the Forecasts and Observations / NOTAM section To "File a Flight Plan" website Publications and other links Update of the User's profile FIC Telephone Numbers My Weather Data Folder Route Weather Data Regional Weather Data Local Weather Data To the Forecasts and Observations / NOTAM section
Request Generated 10/04/2015 at 16:56:05 UTC . Weather information available at that time is displayed.



LWIS CYBV 041600Z AUTO 14007KT 08/06 A3021=
LWIS CYBV 041500Z AUTO 15007KT 110V180 07/05 A3022=
LWIS CYBV 041400Z AUTO 13006KT 06/04 A3023=

CYBV - No TAF is issued for this station

Your time UTC time
Weather data provided by Environment Canada and NAV CANADA